轨道通信卫星FM08星 (ORBCOMM FM08)

导读 | 星芒AI

ORBCOMM FM08 是一颗由 ORBCOMM 公司运营的低轨通信卫星,属于 ORBCOMM 二代卫星星座的一部分。该卫星主要用于提供全球范围内的物联网(IoT)和机器对机器(M2M)通信服务,支持远程数据传输、资产跟踪和监控应用。FM08 采用 L 波段通信,具备低功耗、广覆盖的特点,适用于物流、运输、能源等多个行业。该卫星于 2018 年发射,是构建 ORBCOMM 全球物联网网络的重要组成部分。

基本信息
目录编号:
25112
目录名称:
ORBCOMM FM 8
国际标识:
1997-084A
轨道中心:
EARTH
卫星名称:
轨道通信卫星FM08星
卫星全名:
轨道通信卫星FM08星 (ORBCOMM FM08)
卫星状态:
在轨 (已飞行10272 天)
发射日期:
1997-12-23 UTC
国别 :
(ORB)
星等 :
--
轨道信息
数据来源 国际轨道数据 AOE轨道数据
星历时间 2026-02-06T11:22:25+0800
10小时前
查看轨道信息
2026-02-02T22:00:00+0800
4天前
查看轨道信息
半长轴 7114.058km 7114.127km
偏心率 0.0007502 0.0007878
轨道倾角 45.014° 45.014°
近地点辐角 352.375° 332.543°
升交点赤经 323.949° 341.055°
平近点角 7.698° 200.965°
近地点 730.584km 730.385km
远地点 741.258km 741.595km
周期 99.526分钟 99.527分钟
每日圈数 14.468607 14.468397
详细信息
固有亮度:
8
最大亮度:
6.9
平衡模式:
三轴稳定
覆盖范围:
全球
运营商:
轨道通信公司
运营商所在国:
美国
制造商(研发单位):
轨道ATK公司
制造商所在国:
美国
使用方式:
暂无
卫星简介
轨道通信FM(Orbcomm FM)是一系列低地球轨道通信卫星,由美国卫星通信公司 Orbcomm运营。 截至2015年12月,已有63颗此类卫星绕地球运行。该卫星已退役。
2D轨道图
3D轨道图
轨道高度分析图
轨道倾角分析图
轨道综合分析图
查看轨道综合分析图